W1EZY Weather Reports


time (UTC)temp
C
wind
direction
speed
KPH
gust
KPH
rain 1hr
cm
rain 24hr
cm
rain mn
cm
humidity
%
barometer
mb
20260505065514 11 204 0.0 0.0 0.00 0.00 0.00 87 1010.7
20260505064019 11 178 0.0 0.0 0.00 0.00 0.00 88 1010.7
20260505062518 11 233 0.0 1.6 0.00 0.00 0.00 87 1010.8
20260505061023 11 215 0.0 0.0 0.00 0.00 0.00 87 1010.8
20260505055522 11 192 0.0 3.2 0.00 0.00 0.00 87 1010.8
20260505054027 11 218 0.0 4.8 0.00 0.00 0.00 87 1010.9
20260505052526 11 221 0.0 3.2 0.00 0.00 0.00 87 1010.8
20260505051046 11 234 0.0 1.6 0.00 0.00 0.00 86 1011.0
20260505041014 11 192 0.0 1.6 0.00 0.00 0.00 84 1011.2
20260505035517 11 201 0.0 3.2 0.00 0.00 0.00 84 1011.2
20260505034037 11 200 0.0 1.6 0.00 0.00 0.00 83 1011.2
20260505032518 11 182 0.0 0.0 0.00 0.00 0.00 83 1011.2
20260505031018 11 210 0.0 6.4 0.00 0.00 0.00 82 1011.4
20260505025537 11 197 0.0 6.4 0.00 0.00 0.00 82 1011.4
20260505024020 11 229 0.0 0.0 0.00 0.00 0.00 82 1011.4
20260505022519 11 198 0.0 4.8 0.00 0.00 0.00 82 1011.6
20260505021042 11 221 0.0 14.5 0.00 0.00 0.00 81 1011.5
20260505015520 11 226 0.0 11.3 0.00 0.00 0.00 80 1011.4
20260505014025 11 234 0.0 9.7 0.00 0.00 0.00 79 1011.3
20260505012522 12 233 0.0 3.2 0.00 0.00 0.00 78 1011.1
20260505011027 12 198 0.0 12.9 0.00 0.00 0.00 77 1010.9
20260505005546 12 184 0.0 25.7 0.00 0.00 0.00 76 1010.7
20260505004026 12 211 0.0 12.9 0.00 0.00 0.00 74 1010.5
20260505002528 12 234 0.0 9.7 0.00 0.00 0.00 72 1010.2
20260505001029 12 217 3.2 22.5 0.00 0.00 0.00 69 1009.9
20260504235512 13 227 1.6 19.3 0.00 0.00 0.00 69 1009.7
20260504234032 13 189 0.0 16.1 0.00 0.00 0.00 70 1009.7
20260504232515 13 215 1.6 19.3 0.00 0.00 0.00 69 1009.4
20260504231015 13 232 1.6 14.5 0.00 0.00 0.00 66 1009.4
20260504225518 14 240 3.2 25.7 0.00 0.00 0.00 64 1009.3
20260504224018 15 203 3.2 25.7 0.00 0.00 0.00 60 1009.2
20260504222540 15 225 3.2 25.7 0.00 0.00 0.00 57 1009.0
20260504221020 16 259 0.0 24.1 0.00 0.00 0.00 55 1009.0
20260504215539 16 223 1.6 30.6 0.00 0.00 0.00 52 1008.9
20260504214023 16 138 4.8 22.5 0.00 0.00 0.00 52 1008.9
20260504212521 16 201 8.0 38.6 0.00 0.00 0.00 52 1008.9
20260504211025 16 220 3.2 32.2 0.00 0.00 0.00 50 1008.8
20260504205525 16 190 6.4 32.2 0.00 0.00 0.00 51 1008.7
20260504204030 16 188 6.4 27.4 0.00 0.00 0.00 51 1008.8
20260504202529 17 243 6.4 32.2 0.00 0.00 0.00 50 1008.5
20260504201013 17 165 9.7 40.2 0.00 0.00 0.00 46 1008.5
20260504195532 17 245 6.4 24.1 0.00 0.00 0.00 43 1008.5
20260504194014 17 201 12.9 33.8 0.00 0.00 0.00 41 1008.6
20260504192514 17 233 11.3 37.0 0.00 0.00 0.00 42 1008.8
20260504191019 18 227 9.7 32.2 0.00 0.00 0.00 41 1008.8
20260504185517 18 219 9.7 35.4 0.00 0.00 0.00 40 1009.0
20260504184021 18 187 8.0 27.4 0.00 0.00 0.00 41 1009.0
20260504182539 18 216 6.4 32.2 0.00 0.00 0.00 43 1009.1
20260504181037 18 188 3.2 22.5 0.00 0.00 0.00 43 1008.8
20260504175520 18 246 3.2 25.7 0.00 0.00 0.00 42 1008.8
20260504174039 18 220 4.8 38.6 0.00 0.00 0.00 42 1008.7
20260504172521 18 235 4.8 25.7 0.00 0.00 0.00 39 1009.0
20260504171021 18 149 3.2 30.6 0.00 0.00 0.00 40 1009.1
20260504151053 18 186 3.2 24.1 0.00 0.03 0.00 44 1010.0
20260504141018 17 151 0.0 16.1 0.00 0.03 0.00 46 1010.5
20260504081020 7 283 0.0 0.0 0.00 0.03 0.00 73 1010.5